Theta_e
316 316 317 317 317 305 311 311 307 310 317 313 309 309 309 310 306 304 311 310 311 316 316 320 320 320 321 323 323 323 326 328 330 335 339 339 338 340 343 344 343 343 352 354 355 355 351 347 345 345 348 351 349 348 348 350 348 347 345 343 343 343 343
317 319 318 317 317 317 314 307 312 317 319 316 312 303 307 303 300 303 308 306 308 308 305 318 318 318 319 321 322 322 326 332 333 333 337 340 340 341 344 347 348 351 352 351 354 353 350 345 345 347 351 352 349 348 349 349 347 346 345 344 344 344 343
316 318 317 315 317 318 314 313 319 310 305 304 309 307 300 300 300 302 305 307 307 309 311 314 315 315 317 320 322 321 322 327 330 334 336 340 341 340 343 345 347 345 348 353 355 353 349 346 348 350 352 350 348 349 350 348 347 347 346 345 345 346 345
315 316 314 307 310 316 318 318 314 317 313 310 306 307 307 307 300 301 302 306 304 313 312 315 315 318 317 318 320 320 321 323 328 333 336 339 341 341 343 345 344 346 350 348 353 350 346 345 346 350 349 346 344 346 348 348 348 348 348 346 347 345 346
315 308 311 309 311 309 310 310 311 312 311 315 312 311 307 306 304 302 302 300 306 314 317 316 318 318 320 319 321 322 322 323 325 330 336 340 343 343 344 344 347 351 352 352 351 349 344 345 347 348 346 343 342 344 345 345 347 346 346 346 346 345 346
309 310 315 314 314 314 311 310 309 311 309 307 303 304 312 309 305 298 300 300 308 314 319 320 318 320 320 321 321 323 324 324 326 329 336 341 343 346 346 347 346 346 351 350 349 346 344 344 343 343 344 342 341 343 343 343 343 343 342 345 346 347 346
310 313 316 317 316 317 316 314 311 313 313 312 307 298 305 309 308 309 308 304 307 317 320 321 321 321 320 323 322 322 323 325 326 330 333 342 347 347 346 346 343 343 349 349 346 344 344 345 345 344 344 341 341 343 343 342 341 342 341 345 348 349 347
314 316 317 317 317 316 314 315 316 314 310 311 309 309 311 308 309 305 305 303 307 318 323 322 321 325 322 325 324 323 322 324 327 330 336 343 349 350 347 344 341 343 342 345 345 343 344 345 346 344 343 343 342 341 340 340 339 340 340 339 343 347 347
308 310 314 313 316 315 312 312 314 315 314 313 312 313 315 308 308 308 304 300 306 319 328 325 323 322 320 321 323 325 323 325 326 332 340 345 352 352 347 344 345 346 344 343 344 344 347 347 346 346 344 343 342 341 339 337 338 339 340 341 339 343 346
298 299 300 302 306 309 311 313 313 315 313 313 311 306 310 302 309 311 306 305 311 321 323 323 321 321 322 323 323 323 326 327 326 329 338 348 352 352 352 347 343 340 345 344 345 346 347 347 347 347 347 344 342 342 340 338 338 340 341 342 341 341 341
305 307 312 314 314 312 307 310 311 312 314 314 313 312 308 304 305 305 306 311 311 316 318 318 319 321 320 320 323 323 324 326 329 335 340 346 352 353 352 350 347 348 348 344 345 347 347 348 348 346 345 344 343 344 341 338 338 338 341 342 344 342 340
312 313 313 314 314 310 311 309 310 311 312 313 311 309 306 315 309 302 308 312 310 311 316 318 320 320 322 323 324 323 324 326 327 332 341 348 350 354 353 351 349 348 347 347 348 348 349 350 348 347 348 347 345 345 340 338 337 337 339 343 344 343 341
313 313 313 314 313 313 312 312 311 311 312 312 310 312 312 315 308 306 313 317 314 314 315 317 319 321 322 321 323 324 325 326 329 332 336 343 346 351 352 352 352 350 349 349 351 352 352 351 349 349 349 349 349 347 341 341 338 339 343 344 345 344 342
311 312 312 313 312 312 312 312 312 312 311 311 312 312 313 313 314 314 317 318 315 317 318 319 320 324 324 324 325 325 324 323 327 327 332 338 341 346 351 353 353 353 353 354 354 353 352 350 348 348 349 349 347 343 339 338 341 341 344 345 346 344 340
310 312 313 312 312 312 310 312 313 313 313 312 313 313 313 315 314 313 314 314 313 319 323 322 323 329 327 325 322 321 324 323 323 326 330 335 339 342 349 354 353 354 354 356 356 353 351 349 350 349 348 348 344 339 336 337 341 343 344 346 345 344 341
308 311 311 311 312 312 310 310 311 312 311 310 312 311 314 313 312 314 314 312 312 319 322 321 323 325 325 322 322 323 325 325 325 328 332 333 338 341 344 350 354 354 354 356 355 353 351 350 350 349 349 346 342 340 336 337 340 342 344 344 344 345 343
307 310 311 310 310 309 306 308 310 312 313 314 314 314 316 315 315 313 310 311 318 320 321 320 321 321 321 321 321 324 327 331 331 331 332 332 334 339 345 348 352 353 353 355 356 355 352 350 350 349 345 340 339 339 339 341 343 344 342 340 343 344 344
307 310 310 311 306 299 301 314 316 315 312 313 311 311 313 317 318 315 316 317 320 320 319 319 319 319 320 323 326 329 329 328 330 332 336 336 337 340 344 347 350 353 354 354 356 356 355 354 350 349 343 339 339 341 339 343 343 344 343 341 343 343 343
305 309 310 305 299 301 314 317 318 318 317 315 314 315 315 316 320 320 318 318 319 320 321 321 322 324 324 325 327 329 329 331 334 333 335 339 339 341 345 347 349 352 354 355 355 355 354 352 351 342 339 337 339 340 341 341 342 343 341 342 342 343 342
309 307 307 299 301 313 316 319 319 321 319 318 316 313 314 316 318 320 318 319 319 321 321 322 323 324 324 326 329 330 332 332 335 334 334 337 340 341 345 348 349 351 352 353 353 354 354 352 345 342 339 339 340 340 341 341 343 343 342 342 342 342 339
305 306 306 306 316 312 316 315 317 317 314 315 313 308 312 318 319 319 319 320 320 321 321 321 322 324 324 322 322 324 328 336 336 336 337 336 341 344 347 348 349 353 354 354 352 354 352 347 343 342 341 340 341 340 339 339 342 340 340 341 341 340 339
310 306 304 306 306 301 310 318 319 320 319 319 320 316 313 320 320 321 321 321 321 321 320 321 322 326 319 315 317 327 330 335 338 337 339 339 343 345 346 350 350 352 353 354 354 351 348 345 343 342 341 341 342 341 340 339 339 339 338 340 341 340 338
309 307 303 302 300 304 313 318 320 321 322 320 322 314 309 318 319 320 321 320 321 320 320 321 323 320 313 313 321 328 333 331 334 335 338 338 342 346 347 347 349 351 354 355 352 350 346 342 342 344 344 341 339 339 340 338 338 337 339 340 339 339 340
308 307 304 303 308 306 314 315 318 321 323 321 317 304 304 317 319 320 322 321 320 321 322 322 321 318 313 314 326 326 330 333 334 340 342 342 344 347 348 350 353 355 354 353 350 346 342 343 345 346 342 340 340 339 338 338 337 337 339 340 341 341 341
306 305 305 308 310 319 316 318 320 321 322 318 307 300 309 319 321 322 322 320 321 323 322 322 318 322 323 326 329 330 331 333 338 342 345 346 346 347 346 350 352 353 352 351 347 345 345 347 346 345 342 341 340 342 343 342 340 339 341 342 342 342 342
304 306 303 304 310 318 319 322 320 322 316 306 305 321 327 323 322 325 323 322 323 323 323 322 323 324 325 331 329 329 329 335 342 341 344 345 346 347 349 351 351 351 349 351 347 342 345 349 348 344 344 344 343 344 343 342 344 343 343 343 342 342 341
308 308 304 302 296 319 321 319 318 320 311 316 323 328 325 324 325 323 324 324 325 325 324 325 325 324 323 325 328 328 329 340 341 341 343 345 345 345 349 349 351 348 347 346 341 341 343 344 343 342 343 344 345 345 343 345 346 346 344 342 342 342 341
305 304 301 300 314 319 321 319 314 317 322 325 328 324 322 325 324 324 324 326 327 328 328 327 327 327 327 330 334 334 337 340 342 343 345 345 345 346 344 344 347 345 345 345 344 344 339 340 341 342 344 344 346 347 346 349 349 348 346 343 343 341 340
313 310 314 319 324 321 322 324 323 325 325 327 326 327 324 323 323 329 325 325 327 328 328 330 332 329 328 331 335 335 337 339 340 342 343 344 344 341 338 341 345 345 346 346 343 342 341 342 343 345 348 349 349 349 351 351 350 348 346 344 342 343 345
322 322 322 321 322 323 321 322 324 323 323 325 326 326 326 329 330 331 329 331 330 331 333 329 331 330 330 330 333 334 336 337 341 342 342 341 339 337 338 340 343 340 340 343 344 342 344 349 352 352 352 351 348 349 351 350 350 349 348 347 346 345 344
310 306 319 319 319 319 321 321 322 322 321 323 325 327 328 328 329 330 332 333 334 334 335 333 333 332 330 330 334 336 338 339 342 341 341 341 341 342 344 345 343 341 339 337 339 342 345 348 347 345 348 347 348 348 347 346 347 349 349 346 345 343 340
314 312 318 320 319 323 323 321 320 319 321 323 325 326 329 329 329 330 332 333 332 333 331 334 335 334 331 330 335 336 338 341 342 342 343 343 343 345 347 344 343 341 339 337 336 336 337 343 346 344 341 340 342 344 340 341 341 345 345 343 340 339 337
316 319 320 320 320 321 321 321 321 320 321 323 324 324 325 326 327 329 332 333 332 332 332 335 336 334 333 334 337 333 330 337 339 341 342 345 346 345 341 340 342 341 340 341 344 343 344 342 341 340 341 336 333 337 339 339 341 340 339 339 338 337 335
310 314 316 319 312 311 317 319 319 321 322 324 323 323 322 323 325 327 328 330 332 332 333 333 334 334 336 336 336 333 334 336 339 342 342 341 340 341 343 345 347 347 346 345 343 342 340 341 341 341 341 340 337 330 331 337 339 339 338 335 333 330 332
309 318 318 320 320 320 320 319 320 322 324 325 322 321 321 321 323 324 326 327 331 332 334 335 334 335 335 334 333 331 332 336 339 340 340 340 340 340 342 342 342 342 342 341 341 340 340 340 339 337 339 337 337 333 337 337 337 337 336 335 331 328 329
317 317 316 318 318 315 317 319 321 322 326 324 321 321 322 322 322 323 325 328 329 332 334 332 335 334 335 334 330 330 336 336 338 338 337 338 337 338 339 340 340 339 338 339 339 338 338 338 336 337 334 336 335 333 336 337 337 337 336 334 331 329 330
314 317 317 317 317 318 318 320 321 322 325 323 321 321 322 322 322 324 324 328 330 330 331 330 331 334 333 333 332 332 339 337 336 337 338 337 335 334 335 335 337 337 337 337 337 337 337 336 335 335 333 335 336 334 337 335 336 335 336 335 333 330 331
Wind_Speed
18 19 15 11 10 11 11 10 12 10 9 10 8 10 12 10 8 8 2 10 10 8 11 12 11 7 8 4 6 8 9 11 12 13 16 17 17 17 18 18 19 20 17 18 17 18 16 16 15 14 13 12 12 11 11 11 10 9 8 7 6 5 5
14 17 16 12 13 13 7 10 8 9 3 7 6 8 2 5 9 8 7 7 7 5 5 10 12 9 7 10 7 6 7 9 11 12 13 16 17 17 18 17 17 17 18 20 19 17 18 18 17 15 15 13 12 11 12 11 11 10 8 7 7 6 5
14 13 13 14 13 12 14 6 4 12 9 10 7 7 9 7 8 8 8 8 8 8 4 8 11 7 8 7 4 2 6 9 11 12 13 14 17 17 17 18 17 18 20 20 18 19 19 18 16 16 15 13 12 11 11 11 11 10 9 7 7 6 5
15 12 12 13 13 12 15 8 9 6 7 7 8 9 8 6 7 6 7 4 6 6 6 11 12 5 2 2 5 5 4 7 8 9 11 13 15 16 17 17 18 18 16 19 20 20 20 19 18 16 16 14 15 13 12 11 10 9 9 8 7 7 6
14 14 12 14 12 13 13 10 10 8 7 4 5 6 9 8 8 6 7 5 1 6 7 8 6 5 3 2 4 5 4 4 6 9 10 12 14 15 17 17 18 19 20 19 19 19 18 18 17 16 16 15 14 13 13 12 12 11 10 8 8 6 5
12 13 14 17 16 16 13 12 13 12 10 11 9 9 10 10 7 4 5 7 4 8 6 5 6 6 3 4 2 3 6 6 3 4 9 11 12 15 16 16 16 16 17 20 19 17 16 17 18 18 16 14 14 14 13 12 11 10 10 9 8 7 6
10 14 16 20 21 14 13 15 14 13 11 10 8 8 8 8 9 8 8 7 3 8 8 4 7 4 0 3 2 3 1 1 3 5 7 10 12 14 15 15 14 13 16 18 18 18 18 18 17 17 15 15 14 14 13 11 11 11 9 10 9 7 6
12 14 14 17 18 14 13 12 14 15 14 11 10 10 8 8 2 7 6 8 2 6 6 7 7 3 1 2 2 3 3 3 3 4 6 9 12 14 15 14 12 13 17 16 15 16 16 16 16 17 15 14 13 13 13 12 11 10 8 6 8 9 7
10 9 9 8 12 13 12 12 12 13 13 15 14 13 1 6 6 9 8 9 4 4 5 6 4 4 1 6 7 5 4 3 4 4 5 7 11 12 15 18 18 19 18 16 15 16 15 16 16 15 15 14 13 12 12 11 11 11 8 6 6 7 8
15 13 13 13 13 14 12 15 17 17 18 17 12 13 8 6 9 13 10 10 2 9 8 8 4 1 1 4 7 7 1 2 5 5 6 7 10 11 14 16 18 20 18 16 16 17 15 16 16 15 14 14 13 12 12 10 9 8 8 7 7 7 7
14 11 9 10 11 12 15 17 19 19 16 17 16 11 11 9 7 11 9 8 6 11 10 7 7 6 4 5 6 6 6 6 6 6 6 8 10 11 14 15 14 14 15 18 19 18 17 18 17 16 15 15 13 12 12 10 7 7 7 6 6 6 6
18 11 14 15 18 17 16 19 20 21 20 18 18 15 14 9 10 9 4 7 14 15 12 9 8 5 3 6 6 8 9 9 7 7 9 10 11 12 12 14 15 17 17 17 17 18 18 17 17 16 15 14 13 12 11 8 7 7 7 7 7 7 5
18 20 20 18 18 19 17 19 20 21 20 19 18 15 17 14 12 12 5 4 13 13 12 10 9 8 7 7 7 9 9 7 7 8 10 11 12 13 15 15 16 16 17 17 17 18 18 18 18 17 15 14 12 10 7 6 9 8 7 7 7 7 6
19 21 24 22 15 12 15 19 19 19 19 19 20 19 19 19 14 12 9 10 11 10 11 11 9 6 7 7 7 8 9 10 10 10 9 11 13 13 15 15 17 17 17 17 18 18 18 19 18 17 15 13 11 9 9 11 10 8 7 8 7 7 6
18 21 24 19 16 17 19 20 20 20 18 19 19 19 19 20 17 13 13 15 12 8 7 10 8 3 3 6 9 11 10 11 10 9 9 10 12 13 14 16 17 17 18 18 18 19 19 19 19 16 15 13 12 10 12 13 10 9 8 8 8 7 7
11 15 14 10 15 18 20 21 20 20 20 21 17 16 14 15 11 8 7 10 10 6 10 10 3 4 7 8 8 9 8 10 9 8 8 9 10 11 13 14 15 17 18 19 20 20 21 20 19 17 15 14 13 8 13 12 11 10 9 9 8 8 7
13 17 15 14 19 17 18 19 19 21 21 18 15 14 14 12 7 8 10 9 8 8 2 5 8 9 10 10 9 8 7 7 9 10 10 10 10 10 10 12 14 16 17 18 19 20 19 19 18 17 15 15 8 15 13 10 9 9 10 9 8 8 8
10 16 15 13 12 16 14 10 16 15 15 14 16 14 10 6 4 7 9 8 6 3 3 6 8 8 9 9 7 7 7 9 10 10 10 9 8 8 9 11 13 14 13 14 16 18 18 19 19 17 18 17 17 17 12 10 10 9 9 8 8 9 8
12 12 11 13 17 15 10 7 5 9 14 14 15 12 9 9 8 9 9 8 6 5 5 6 7 8 9 9 9 9 9 8 9 9 8 7 7 8 9 10 12 12 13 14 15 16 17 18 17 18 17 16 17 14 11 11 11 10 9 9 9 9 9
9 12 10 11 11 2 3 3 7 6 9 9 13 16 14 12 11 9 11 10 8 7 8 7 7 6 6 7 10 11 10 8 8 8 7 7 7 8 8 10 10 11 13 13 15 15 15 16 16 16 17 17 15 14 13 12 11 11 10 10 10 10 10
11 10 12 13 2 2 7 5 8 8 10 10 9 10 10 9 8 8 8 7 7 8 7 6 5 3 5 9 10 12 9 8 7 7 5 4 6 7 7 9 10 10 11 12 13 14 15 15 15 15 15 15 13 13 13 12 12 12 11 11 11 11 11
11 12 13 12 10 13 9 8 6 6 7 4 4 4 5 5 6 8 10 8 4 6 6 6 3 2 8 9 7 2 5 6 7 5 4 4 6 7 8 8 9 10 10 11 13 15 16 15 15 13 14 13 12 12 12 13 13 13 13 13 12 12 12
11 12 13 12 13 10 7 6 12 14 10 5 5 4 8 6 10 10 10 8 4 4 5 3 2 4 7 8 2 5 2 4 7 7 6 6 7 8 9 10 11 12 11 12 14 14 15 15 14 13 13 14 13 13 13 13 13 13 13 13 12 12 11
11 12 12 13 8 9 4 7 12 9 8 5 4 11 9 5 9 6 5 5 4 5 3 4 5 5 8 6 5 2 4 4 6 7 7 7 9 9 9 9 11 11 12 12 14 15 15 14 13 13 13 12 12 12 13 13 13 13 13 12 11 10 10
12 12 12 10 10 4 5 5 3 4 7 7 10 9 4 4 3 3 1 3 5 5 6 4 7 4 8 4 1 3 4 6 8 7 7 8 9 10 11 11 12 11 12 12 14 15 12 12 12 12 11 11 12 11 11 11 12 12 11 10 10 9 9
14 14 14 13 9 6 1 8 8 8 8 10 10 4 4 1 1 3 2 6 5 6 6 7 6 6 10 1 4 4 6 7 8 9 9 9 9 9 10 13 11 11 11 12 13 13 11 11 11 10 9 9 10 10 11 12 13 11 9 9 9 9 9
11 10 14 10 10 1 14 5 4 7 11 2 3 3 5 4 1 1 2 3 6 5 7 7 9 10 12 10 7 9 6 7 9 9 10 10 10 11 12 12 11 11 11 12 14 13 11 11 10 9 9 10 10 10 12 13 11 10 9 9 9 9 10
10 10 10 4 4 9 4 3 1 6 4 3 3 4 4 2 2 4 3 5 2 4 6 8 9 11 11 6 4 5 4 6 7 8 9 10 10 11 12 12 11 12 10 10 11 11 10 9 8 8 8 8 9 10 12 10 9 9 9 9 9 10 9
5 5 3 7 2 4 4 4 6 3 5 4 4 3 4 4 3 5 6 6 6 7 7 7 8 9 10 9 7 9 8 8 8 9 10 10 10 10 11 11 10 9 9 9 9 9 6 6 4 5 6 8 9 11 10 9 8 8 8 8 8 8 8
5 5 5 5 3 3 4 6 4 6 6 8 6 7 5 6 6 5 6 7 8 9 9 9 7 9 9 10 9 9 8 8 9 9 9 9 8 8 7 9 9 8 8 8 7 6 5 2 3 3 4 5 7 7 6 6 5 6 6 7 7 7 7
3 3 1 3 4 2 1 6 7 8 8 8 8 7 7 7 7 8 7 7 9 9 9 10 10 10 11 11 9 9 8 10 11 11 10 9 9 9 9 8 7 6 6 6 7 6 5 6 5 6 7 5 4 4 4 4 3 4 6 7 7 7 8
7 1 2 2 3 4 4 6 6 7 9 9 10 8 7 7 7 7 7 7 9 8 10 10 10 11 12 11 9 7 8 9 10 10 10 10 9 9 8 8 7 7 5 4 4 5 5 3 2 1 2 2 3 4 3 4 5 5 6 7 8 8 7
2 8 11 2 3 4 7 10 7 8 8 9 10 10 10 10 10 10 9 8 8 9 10 8 8 11 10 9 8 7 8 8 9 9 10 10 10 9 9 8 7 6 6 6 6 6 5 3 2 1 1 3 6 2 2 5 4 5 6 7 6 7 7
7 4 5 4 5 4 5 9 9 9 8 9 9 9 10 11 11 11 12 11 9 8 8 9 5 6 8 5 8 12 10 7 7 9 9 9 9 9 9 8 9 9 8 8 7 7 5 3 3 2 1 1 3 6 5 1 1 4 5 6 7 7 7
2 6 6 7 5 1 5 7 9 8 7 7 8 9 11 11 11 11 11 12 10 7 5 9 10 6 8 5 7 10 8 7 8 7 10 9 9 9 9 10 10 9 9 8 8 7 5 4 4 3 1 1 2 3 3 2 2 5 5 5 5 8 8
3 4 7 5 6 7 9 9 7 7 5 6 8 9 10 11 12 12 12 10 11 9 4 3 2 8 5 4 6 8 8 9 9 8 8 8 8 9 9 9 10 10 10 9 8 8 6 5 4 2 1 1 2 3 1 2 4 5 5 6 7 8 7
5 9 5 6 6 8 9 10 8 6 4 8 9 10 11 13 13 12 12 11 9 11 8 5 3 3 5 9 8 2 8 7 10 10 9 9 9 9 9 11 10 9 9 8 7 6 5 4 3 2 1 2 2 4 4 2 3 4 5 6 8 8 7
Wind_Direction
179 213 216 203 213 219 173 214 215 223 218 242 238 241 239 262 264 262 180 211 219 241 201 177 185 163 182 155 208 216 201 204 216 209 191 197 200 194 189 187 184 186 189 190 179 175 175 173 173 173 168 167 168 168 173 175 177 177 181 180 185 190 189
191 212 209 220 202 247 180 208 219 219 243 292 269 260 158 226 268 258 233 247 246 210 284 154 146 185 171 183 178 206 195 202 210 217 206 195 201 196 190 184 183 182 181 190 180 178 176 175 174 169 167 169 169 173 175 177 179 182 181 183 187 185 194
183 205 214 205 231 234 269 195 175 221 177 214 220 296 235 225 214 249 233 224 253 267 165 173 139 218 172 173 148 225 205 207 212 212 213 200 200 200 189 190 184 180 193 188 178 177 176 174 172 167 167 169 171 176 178 179 182 182 182 185 187 186 197
164 204 205 218 195 209 247 302 284 238 241 225 205 193 271 271 266 254 245 211 283 211 203 178 141 129 52 55 145 197 230 213 207 213 212 205 202 199 191 192 186 184 186 190 181 176 174 171 172 168 171 174 176 178 177 181 182 182 183 186 183 193 193
163 206 193 222 200 196 199 232 241 199 232 291 297 160 227 228 247 249 283 260 100 26 85 97 106 89 130 183 178 176 236 265 214 212 211 204 203 199 197 193 195 183 181 187 183 177 173 168 171 173 176 179 179 177 178 184 181 185 187 185 189 196 200
188 218 191 221 217 197 206 212 218 240 211 213 211 229 196 238 252 269 264 248 162 122 86 62 87 129 171 136 293 212 194 192 250 239 209 202 199 198 199 195 193 193 190 187 179 175 172 169 176 180 178 179 182 180 179 187 183 191 193 185 195 194 196
211 225 197 203 230 230 230 194 217 225 231 224 222 239 229 224 236 241 248 283 161 117 115 133 113 126 192 77 166 253 193 297 264 234 215 199 199 196 195 188 187 205 203 183 176 174 173 172 178 180 179 182 183 183 181 183 192 191 201 185 187 189 197
217 210 224 193 213 232 245 234 215 204 220 219 230 227 238 244 240 264 227 230 177 113 126 151 120 78 120 161 213 227 283 335 300 233 226 195 191 200 186 187 192 190 207 189 169 172 173 172 178 181 182 182 182 184 183 184 191 193 203 189 178 182 197
208 186 206 203 197 223 231 238 228 242 232 212 210 230 218 259 198 224 248 248 149 139 96 85 126 172 256 153 183 183 279 299 270 217 215 198 191 199 194 192 185 189 191 183 170 174 173 174 179 181 181 182 181 182 185 192 192 187 191 195 198 186 192
217 199 200 197 204 212 221 237 240 215 232 238 225 221 161 226 222 257 245 240 117 138 125 131 160 106 329 312 309 299 240 236 275 264 202 198 194 199 203 192 188 187 184 177 173 175 175 176 178 178 179 179 180 178 187 195 192 179 180 190 193 196 203
234 224 223 203 225 201 220 215 231 247 225 235 245 250 243 228 208 230 246 271 195 167 170 207 169 186 230 261 257 245 245 232 230 241 229 201 195 199 203 201 191 180 178 181 179 176 176 176 176 176 177 177 178 177 183 192 187 183 181 186 187 198 206
259 247 228 226 215 227 213 222 220 227 243 228 231 234 236 226 244 241 241 246 255 259 266 280 298 304 252 264 276 271 261 266 259 223 219 212 195 195 197 198 195 190 187 181 178 177 175 175 173 173 174 176 177 174 177 182 196 195 185 186 189 196 206
238 249 254 237 232 226 223 218 223 224 224 235 234 234 241 240 242 257 159 239 258 259 257 269 288 311 310 278 268 279 300 294 267 247 222 212 208 198 196 197 196 191 187 183 180 177 177 173 171 171 174 173 172 154 154 200 208 196 187 183 192 197 195
231 233 240 248 251 247 239 243 236 229 225 219 224 234 238 238 238 229 200 185 244 267 273 285 310 327 308 300 289 286 273 260 255 258 240 219 218 209 200 198 196 194 189 184 183 181 180 176 172 173 171 162 133 142 181 202 206 198 184 185 195 197 202
229 227 222 226 238 239 242 238 240 240 237 236 231 234 234 240 240 224 219 245 246 232 263 279 263 113 269 272 273 278 286 284 272 250 238 234 227 218 207 198 196 193 193 188 187 185 184 177 175 171 168 142 143 164 195 204 191 196 186 188 197 198 203
249 261 256 239 251 247 247 250 245 242 242 243 237 234 238 246 238 226 239 244 250 243 253 260 226 207 241 269 276 268 265 270 266 256 259 252 237 231 218 207 200 196 194 190 192 188 184 178 175 170 159 139 121 212 212 196 189 188 193 192 196 197 204
235 244 238 231 239 248 247 237 235 235 236 246 246 242 241 259 275 223 228 238 247 274 334 292 277 278 285 293 287 295 301 299 279 267 261 256 249 234 221 207 202 201 199 195 191 189 185 178 173 164 132 104 135 224 210 190 189 188 191 196 194 202 203
238 242 234 233 246 243 242 248 249 252 252 243 244 243 238 234 250 273 283 290 329 358 291 278 285 285 286 293 300 300 289 284 280 266 255 254 242 227 216 209 201 201 201 200 198 191 184 178 167 137 125 145 196 210 197 183 190 193 192 195 198 202 205
236 240 231 237 231 236 248 270 273 243 235 249 262 256 238 234 220 239 258 264 246 250 268 272 273 273 279 277 278 279 280 274 266 262 252 235 227 217 205 201 199 198 199 200 199 195 189 177 156 139 149 172 195 189 186 184 190 193 196 198 202 205 206
251 250 220 233 246 275 211 244 255 270 279 240 243 249 244 237 243 231 239 242 256 270 265 260 267 276 287 290 275 264 257 250 241 242 237 223 212 207 200 191 193 191 196 197 195 192 184 170 162 157 166 177 177 180 183 188 188 193 193 201 204 207 210
243 237 238 241 121 229 204 205 212 204 226 225 229 248 238 240 226 244 258 253 255 267 277 273 261 313 307 284 273 247 221 205 219 232 242 215 189 187 184 182 184 185 189 193 187 177 177 172 162 163 164 168 175 180 187 191 191 194 198 200 207 208 211
233 243 243 238 226 243 219 213 205 208 241 230 220 210 233 156 240 232 241 248 247 256 265 277 338 5 277 273 279 127 153 167 195 199 210 153 152 161 168 166 168 176 183 179 169 177 171 168 165 163 167 168 174 189 194 195 195 199 203 205 207 209 211
223 230 245 244 253 245 238 179 239 223 220 201 103 199 236 173 233 235 236 245 240 241 269 255 181 265 272 275 270 140 124 167 165 169 174 166 147 158 157 164 161 168 166 172 168 170 166 167 166 167 172 174 184 193 200 202 202 203 206 209 208 209 211
236 240 237 246 230 256 270 244 235 183 147 188 182 250 252 213 199 221 220 209 234 268 257 266 247 248 276 290 19 94 162 189 140 160 168 146 142 148 151 155 152 159 163 164 170 170 169 170 168 171 177 188 197 198 204 209 210 210 211 211 210 211 211
236 245 250 257 255 158 194 206 123 159 197 197 227 242 295 98 159 120 176 244 234 220 243 236 264 243 255 280 276 268 190 166 149 156 158 147 153 150 154 147 149 157 169 173 178 174 171 170 174 181 186 197 206 207 208 210 218 220 214 208 208 208 213
241 235 245 249 266 38 19 145 208 176 186 212 249 50 277 346 317 79 209 268 300 306 302 303 292 290 287 348 298 266 220 182 157 159 153 149 150 150 138 140 158 159 171 174 177 175 170 176 182 187 195 206 215 216 213 218 219 220 216 208 205 206 213
245 245 252 249 243 53 284 150 175 108 234 21 96 81 29 96 136 170 265 280 299 314 300 296 297 291 284 284 254 245 215 162 164 160 154 154 155 145 141 153 166 168 166 173 178 179 179 184 191 198 209 216 222 226 225 222 222 217 214 213 205 205 219
251 234 236 298 25 168 186 203 224 210 45 67 33 16 217 81 287 240 269 241 268 305 301 294 285 287 280 257 282 259 176 185 161 151 152 156 150 148 159 155 161 165 158 174 180 187 193 187 194 202 226 229 227 235 239 235 228 224 217 213 209 210 208
327 330 42 134 150 89 126 109 118 88 83 74 41 352 332 303 317 345 293 306 303 290 289 291 285 273 261 252 214 222 199 182 166 157 161 153 153 160 157 155 156 161 160 170 177 189 202 232 239 202 206 227 225 233 237 238 236 232 234 229 209 204 200
105 140 90 120 128 119 142 124 71 51 55 48 22 20 347 11 335 334 325 320 310 301 293 283 272 265 261 240 222 217 198 181 160 152 149 145 146 145 133 133 150 174 169 169 173 179 166 174 154 178 200 220 238 239 247 248 240 226 214 209 205 196 193
246 211 11 274 83 165 89 69 67 48 38 29 27 15 360 349 338 330 331 318 310 298 289 271 260 260 253 239 219 215 189 172 159 155 145 139 138 137 131 122 133 146 162 168 174 152 148 189 214 223 209 208 228 240 237 246 225 222 223 218 222 218 203
234 179 230 189 72 23 34 51 51 29 23 19 21 14 359 344 331 320 317 309 285 284 271 262 256 251 246 232 201 194 184 180 162 149 142 137 133 125 119 126 131 131 136 161 155 167 178 139 132 357 350 279 236 232 258 248 238 210 213 212 212 209 203
258 143 175 195 215 152 111 79 47 27 11 6 10 10 6 3 351 348 328 316 307 287 284 282 272 261 240 217 167 167 217 204 158 147 136 129 125 122 121 119 120 117 121 116 113 117 107 91 62 74 359 314 313 329 263 267 247 200 206 200 194 205 206
261 347 41 24 231 231 169 47 28 15 10 3 2 5 6 8 358 347 336 326 318 312 310 297 271 302 278 171 164 214 199 164 136 121 117 123 127 124 121 116 111 108 108 116 117 113 107 108 115 100 83 344 318 293 289 166 135 184 213 215 213 222 216
277 67 52 32 352 291 41 5 8 353 6 360 358 4 359 357 352 346 339 329 324 325 347 2 342 282 242 186 219 236 156 140 131 140 138 138 133 133 130 124 123 120 120 121 119 118 115 123 123 122 109 66 357 330 16 345 231 235 229 222 243 263 257
267 59 49 17 10 333 334 333 347 339 15 4 352 350 351 348 341 338 339 334 320 311 296 278 254 296 252 216 218 251 139 152 128 145 148 148 146 140 140 131 130 128 127 124 120 118 121 115 102 89 93 91 46 318 131 256 277 266 245 246 249 259 261
331 21 354 19 338 323 313 312 323 329 25 13 349 340 342 337 332 336 325 324 310 302 286 252 300 5 318 275 253 180 133 164 152 152 146 143 151 148 143 135 134 131 125 123 117 117 113 110 100 93 87 39 42 345 350 316 287 279 261 256 266 272 277